Location: Firdgum
(53.2488°N, 5.5615°E)
Time: 06:06:37
(UTC+00:00)

Cosmos 1378 Rocket - Pass Details

Date: 08 December 2019
Orbit: 602 x 627 km, 82.5° (Epoch: 25 January)

Event Time Altitude Azimuth Distance (km) Brightness Sun altitude
Rises 06:16:06 0° 349° (N) 2,901 6.7 -11.4°
Reaches altitude 10° 06:18:20 10° 351° (N) 1,995 5.9 -11.1°
Maximum altitude 06:22:46 80° 77° (ENE) 638 3.7 -10.5°
Drops below altitude 10° 06:27:12 10° 166° (SSE) 1,993 6.7 -9.9°
Sets 06:29:25 0° 168° (SSE) 2,897 7.6 -9.6°
